Location: Duac?
(36.9744°N, 30.6500°E)
Time: 07:23:16
(UTC+00:00)

USA 186 - Pass Details

Date: 05 August 2024
Orbit: 373 x 421 km, 97.1° (Epoch: 09 September)

Event Time Altitude Azimuth Distance (km) Brightness Sun altitude
Exits shadow 18:22:26 - 200° (SSW) 2,030 5.1 -15.3°
Reaches altitude 10° 18:24:17 10° 218° (SW) 1,373 4.4 -15.6°
Maximum altitude 18:26:24 18° 264° (W) 994 4.3 -15.9°
Drops below altitude 10° 18:28:32 10° 311° (NW) 1,383 5.7 -16.3°
Sets 18:30:54 0° 331° (NNW) 2,243 6.7 -16.7°
